Regional Weather Roundup
Issued by NWS Kansas City/Pleasant Hill, MO

Home | Current Version | Previous Version | Text Only | Print | Product List | Glossary On
Versions: 1 2 3 4 5 6 7 8 9 10 11 12 13 14 15 16 17 18 19 20 21 22 23 24 25 26 27 28
000
ASUS43 KEAX 221310
RWREAX

WEATHER ROUNDUP FOR EASTERN KANSAS AND NORTHWEST MISSOURI
NATIONAL WEATHER SERVICE KANSAS CITY/PLEASANT HILL MO
800 AM CDT SUN APR 22 2018

KSZ040-057-103>105-MOZ028-029-037-043-221400-
...KANSAS CITY METROPOLITAN AREA...

CITY           SKY/WX    TMP DP  RH WIND       PRES   REMARKS
K.C. INTL      CLOUDY    50  34  54 NE16      30.13R
K.C. DOWNTOWN  CLOUDY    52  37  56 NE8       30.12R
LEES SUMMIT    LGT RAIN  48  40  73 NE12G21   30.11R
OLATHE - IXD   LGT RAIN  47  43  86 NE12      30.11R
OLATHE - OJC   LGT RAIN  46  42  86 NE12      30.10R
LAWRENCE       LGT RAIN  50  39  66 NE8       30.12R

$$

MOZ001>008-011>017-020>025-030>033-038>040-044>046-053-054-221400-
...NORTHERN AND CENTRAL MISSOURI...

CITY           SKY/WX    TMP DP  RH WIND       PRES   REMARKS
ST. JOSEPH     CLOUDY    51  33  50 NE7       30.16R
MOSBY          DRIZZLE   50  34  53 E7        30.14R
WARRENSBURG    RAIN      45  43  93 N8        30.11R
WHITEMAN AFB   LGT RAIN  48  45  91 NE12      30.06S
CLINTON        LGT RAIN  48  46  93 E10       30.07R
SEDALIA        LGT RAIN  49  48  97 E14       30.12R FOG
WARSAW         NOT AVBL
CHILLICOTHE      N/A     51  32  48 NE7       30.18R
KIRKSVILLE     CLOUDY    49  32  52 E12       30.20R

$$

MOZ041-047>049-056>058-063>065-088>090-097-221400-
...EASTERN AND SOUTHERN MISSOURI...

CITY           SKY/WX    TMP DP  RH WIND       PRES   REMARKS
ST. LOUIS INTL LGT RAIN  52  40  63 E12       30.17S
SPIRIT OF STL  CLOUDY    52  43  71 E9        30.15R
COLUMBIA       LGT RAIN  50  40  68 E8        30.12R
JEFFERSON CITY LGT RAIN  50  44  80 E9        30.12R
ROLLA          LGT RAIN  50  47  89 E14       30.08F
OSAGE BEACH    LGT RAIN  49  48  97 E12       30.07S FOG
SPRINGFIELD    LGT RAIN  54  53  97 E8        29.97S
BRANSON        RAIN      54  54 100 S6        29.97S FOG
JOPLIN         RAIN      49  49 100 NE8       29.98S FOG
WEST PLAINS    CLOUDY    54  50  86 E12G21    30.02R

$$

IAZ060-094-KSZ022-034>040-054-083-096-NEZ052-066-093-221400-
...KANSAS...SOUTHEAST NEBRASKA AND IOWA...

CITY           SKY/WX    TMP DP  RH WIND       PRES   REMARKS
TOPEKA         CLOUDY    50  37  61 N6        30.13R
MANHATTAN      CLOUDY    45  37  73 N3        30.14R
EMPORIA        CLOUDY    47  39  74 N8        30.09R
CHANUTE        RAIN      49  46  90 N10       30.03S FOG
WICHITA        CLOUDY    45  43  93 N17       30.11S
OMAHA          CLOUDY    48  33  56 N3        30.23R
LINCOLN        CLOUDY    39  32  76 N6        30.23S WCI  35
FALLS CITY     PTSUNNY   47  33  58 NE6       30.17R
LAMONI         CLOUDY    47  32  56 NE10      30.20R
DES MOINES     CLOUDY    48  30  49 E10       30.26S

$$





USA.gov is the U.S. government's official web portal to all federal, state and local government web resources and services.